Погода в Лиски

Погода в Лиски : погода сейчас, прогноз погоды и архив. Всё, что Вы хотите узнать о погоде в Лиски!

Поиск расширенной информации на нашем сайте:

Другие новости

Новости СМИ2

Главная страница сайта

Новости сайта

03.07.2017

Напоминаем, что на нашем специализированном сайте Метеоцентр.Азия вы можете получить высокодетализированные автоматические прогнозы погоды по пунктам России, СНГ и мира в авиационном формате (включающие направление и скорость ветра, видимость, явления погоды, количество и форму облачности, нижнюю и верхнюю границу облачности).


Погода в Лиски - сегодня

Время (UTC), дата Ветер
(°,м/с) 
Видим.   Явления Облачность Т
(°С)
Тd
(°С)
f(%) Тe
(°С)
Pmin
(гПа)
dP
(гПа)
Po
(мм)
O2
(г/м3)
Тmin Tmax R s Состояние
почвы
12 20.10.17 040 (СВ) 20000 м    3/1 600 м верхняя 
[Sc|Ci fib]
+12 +0.1 44 +12  1020.1  -0.7  755  291           
15 20.10.17 360 (С) 20000 м    3/0 верхняя 
[Cc]
+8 +1.1 62 +8  1020.8  0.5  755  295    +12.7       
18 20.10.17 360 (С) 10 км    ясно 
+3 +0.6 84 +4  1021.8  0.7  756  301           
21 20.10.17 030 (СВ) 10 км    3/0 средняя 
[Ac trans]
+0.6 -1.1 88 +1  1021.8  -0.2  755  304           
00 21.10.17 тихо ()   10 км    6/6 840 м 
[Sc]
-0.4 -1.6 92 -0  1021.5  -0.3  755  305           
03 21.10.17 тихо ()   10 км    8/6 800 м средняя 
[Sc|Ac trans]
-0.8 -1.7 94 -1  1021  -0.6  755  305  -1.3         
06 21.10.17 тихо ()   10 км    9/9 800 м 
[Sc]
+1.8 +0.2 89 +2  1020.6  -0.1  755  302           
09 21.10.17 010 (С) 20000 м    9/9 800 м 
[Sc]
+8.2 -0.8 53 +8  1019.5  -0.8  754  295           
12 21.10.17 010 (С) 20000 м    9/9 800 м 
[Sc]
+8.8 -2.4 45 +9  1017.9  -1.5  753  294           
15 21.10.17 020 (С) 20000 м    9/9 800 м 
[Sc]
+7 -0.8 58 +8  1017.3  -0.7  752  296    +10.2       
18 21.10.17 030 (СВ) 20000 м    9/8 840 м верхняя 
[Sc|Ci fib]
+4.4 +0.8 77 +5  1016.9  -0.5  752  298           
21 21.10.17 тихо ()   20000 м    9/9 840 м 
[Sc]
+4 +0.6 78 +4  1016.1  -0.8  751  298           
00 22.10.17 тихо ()   10 км  слаб. ливневой дождь  10/10 660 м кучево-дожд. 
[Cb cap]
+4.3 +2 85 +4  1015.6  -0.5  751  298           
03 22.10.17 360 (С) 10 км  {ливн. осадки}  10/10 600 м кучево-дожд. 
[Cb cap]
+3.4 +1.3 86 +3  1014.9  -0.7  751  298  +3.3    0.6     
06 22.10.17 010 (С) 10 км  {ливн. осадки}  9/9 800 м 
[Sc]
+2.7 +0.9 88 +2  1015.3  0.3  751  299  +2.2         
09 22.10.17 030 (СВ) 20000 м    9/9 660 м кучево-дожд. 
[Cb cap]
+4.7 +0.6 75 +3  1015.5  0.3  751  297           
12 22.10.17 020 (С) 20000 м    6/6 800 м 
[Sc]
+5.3 -2.1 59 +4  1015.9  0.4  751  297           
15 22.10.17 020 (С) 20000 м    8/8 660 м кучево-дожд. 
[Cb cap]
+2 -2.3 73 +1  1017.7  1.7  753  301    +5.7       
18 22.10.17 360 (С) 20000 м    6/6 700 м кучево-дожд. 
[Cb cap]
+0.2 -3.8 74 +1  1019.4  1.4  754  304           
21 22.10.17 040 (СВ) 10 км    8/8 800 м 
[Sc]
-3.3 -5 88 -3  1020.8  1.2  755  308           
00 23.10.17 тихо ()   10 км    ясно 
-3 -4.7 88 -3  1021.7  0.9  755  308           
03 23.10.17 030 (СВ) 10 км    ясно 
-6.2 -7.4 91 -6  1022.7  0.9  756  312  -6.3         
06 23.10.17 тихо ()   20000 м    3/0 верхняя 
[Ci fib]
-1.8 -5.2 78 -2  1023.1  0.6  756  307  -6.5         
09 23.10.17 230 (ЮЗ) 20000 м    6/3 600 м верхняя 
[Sc|Ci fib]
+3.9 -4.5 54 +3  1022.8  0.1  756  301           
12 23.10.17 210 (ЮЗ) 20000 м    8/4 600 м верхняя 
[Sc|Ci fib]
+4.2 -6.4 46 +4  1022.4  -0.4  756  301           
Время (UTC), дата Ветер
(°,м/с) 
Видим.   Явления Облачность Т
(°С)
Тd
(°С)
f(%) Тe
(°С)
Pmin
(гПа)
dP
(гПа)
Po
(мм)
O2
(г/м3)
Тmin Tmax R s Состояние
почвы

Для получения пояснительной информации подведите курсор к названию столбца.

ПОГОДА в Лиски - архив

Всё, что Вы хотите узнать о погоде в Лиски - удобно и подробно!

Выберите нужную дату (начиная с 1 января 2015* года) и нажмите кнопку "Найти".
Будут отображены архивные сводки погоды по пункту Лиски, начиная с указанной даты.


Отображать данные в формате CSV (для использования в таблицах Excel)


Внимание! Наш архив погоды предназначен исключительно для личного некоммерческого использования в познавательных целях. Если Вам необходимы официальные справки о состоянии погоды (для производственных, юридических, коммерческих и т.п. целей), обращайтесь в органы Росгидромета.

*Примечание: данная дата относится к архиву по метеостанциям СССР (Россия, СНГ, Балтия).
Архив по метеостанциям Зарубежной Европы и Азии (кроме Китая) хранится 10 дней, по другим регионам земного шара (Китай, Африка, Америка, Австралия, Океания) - 1 день.

Лиски - район местоположения метеостанции


Название, широта, долгота, высота метеостанции:
Лиски 51°ш. 39.5°д. 115 м над ур. моря [Российская Федерация]

Дополнительная информация

В oтличие oт бoльшинства пoгoдных сайтoв мы публикуем пoдрoбную метеoинфoрмацию в детальнoм прoфессиoнальнoм фoрмате.

Характеристики температуры и влажнoсти вoздуха измеряются на высoте 2 м в тени вдали oт зданий и деревьев.
Скoрoсть ветра измеряется на высoте 10 м (на урoвне рoста челoвека скoрoсть ветра ниже в 1.5-2 раза). Если метеoстанция нахoдится в гoрoде или в лесу, тo скoрoсть ветра занижена на 2-4 м/с пo сравнению с oткрытым местoм. Скoрoсть ветра над акватoриями крупных рек и oзёр, а также на вершинах хoлмoв на 2-5 м/с выше, чем в oбычных услoвиях.
Атмoсфернoе давление в разных тoчках местнoсти мoжет значительнo oтличаться oт давления на метеoстанции, в зависимoсти oт услoвий рельефа (при пoдъёме на 10 м давление пoнижается примернo на 1 мм рт.ст.).